| time (UTC) | temp F | wind direction | speed knots | gust knots | rain 1hr in | rain 24hr in | rain mn in | humidity % | barometer mb |
| 20260507220041 | 34 | 207 | 0.0 | 0.0 | 0.00 | 0.00 | 0.00 | 72 | 1020.1 |
| 20260507214535 | 34 | 207 | 0.0 | 0.0 | 0.00 | 0.00 | 0.00 | 71 | 1020.0 |
| 20260507213033 | 35 | 207 | 0.0 | 0.0 | 0.00 | 0.00 | 0.00 | 72 | 1019.9 |
| 20260507211533 | 35 | 209 | 0.0 | 0.0 | 0.00 | 0.00 | 0.00 | 71 | 1019.7 |
| 20260507210028 | 36 | 209 | 0.0 | 0.0 | 0.00 | 0.00 | 0.00 | 68 | 1019.7 |
| 20260507204518 | 37 | 209 | 0.0 | 0.9 | 0.00 | 0.00 | 0.00 | 67 | 1019.5 |
| 20260507203015 | 37 | 209 | 0.0 | 0.9 | 0.00 | 0.00 | 0.00 | 68 | 1019.4 |
| 20260507201509 | 39 | 209 | 0.0 | 0.9 | 0.00 | 0.00 | 0.00 | 66 | 1019.2 |
| 20260507200007 | 40 | 209 | 0.0 | 0.0 | 0.00 | 0.00 | 0.00 | 61 | 1019.2 |
| 20260507194602 | 41 | 192 | 0.0 | 0.0 | 0.00 | 0.00 | 0.00 | 64 | 1019.1 |
| 20260507193056 | 42 | 191 | 0.0 | 0.0 | 0.00 | 0.00 | 0.00 | 63 | 1018.9 |
| 20260507191554 | 44 | 192 | 0.0 | 0.0 | 0.00 | 0.00 | 0.00 | 56 | 1018.7 |
| 20260507190057 | 47 | 192 | 0.0 | 0.0 | 0.00 | 0.00 | 0.00 | 45 | 1018.4 |
| 20260507184547 | 50 | 191 | 0.0 | 0.0 | 0.00 | 0.00 | 0.00 | 36 | 1018.2 |
| 20260507183053 | 55 | 189 | 0.0 | 1.7 | 0.00 | 0.00 | 0.00 | 28 | 1017.9 |
| 20260507181535 | 56 | 161 | 0.9 | 6.1 | 0.00 | 0.00 | 0.00 | 25 | 1018.0 |
| 20260507180030 | 56 | 194 | 1.7 | 4.3 | 0.00 | 0.00 | 0.00 | 25 | 1017.9 |
| 20260507174532 | 57 | 189 | 1.7 | 4.3 | 0.00 | 0.00 | 0.00 | 26 | 1017.7 |
| 20260507173036 | 58 | 169 | 0.9 | 6.1 | 0.00 | 0.00 | 0.00 | 26 | 1017.7 |
| 20260507171517 | 58 | 158 | 0.0 | 4.3 | 0.00 | 0.00 | 0.00 | 26 | 1017.5 |
| 20260507170019 | 59 | 181 | 3.5 | 5.2 | 0.00 | 0.00 | 0.00 | 26 | 1017.4 |
| 20260507164519 | 58 | 177 | 4.3 | 7.8 | 0.00 | 0.00 | 0.00 | 26 | 1017.4 |
| 20260507163005 | 59 | 288 | 2.6 | 8.7 | 0.00 | 0.00 | 0.00 | 26 | 1017.2 |
| 20260507161605 | 59 | 176 | 2.6 | 8.7 | 0.00 | 0.00 | 0.00 | 28 | 1017.2 |
| 20260507160056 | 59 | 284 | 5.2 | 8.7 | 0.00 | 0.00 | 0.00 | 26 | 1017.2 |
| 20260507154556 | 59 | 165 | 4.3 | 12.2 | 0.00 | 0.00 | 0.00 | 28 | 1017.2 |
| 20260507153047 | 59 | 137 | 4.3 | 9.6 | 0.00 | 0.00 | 0.00 | 27 | 1017.1 |
| 20260507151545 | 59 | 167 | 7.0 | 10.4 | 0.00 | 0.00 | 0.00 | 27 | 1017.1 |
| 20260507150043 | 59 | 173 | 4.3 | 8.7 | 0.00 | 0.00 | 0.00 | 26 | 1017.1 |
| 20260507144537 | 59 | 217 | 7.0 | 12.2 | 0.00 | 0.00 | 0.00 | 26 | 1016.9 |
| 20260507143030 | 59 | 179 | 5.2 | 12.2 | 0.00 | 0.00 | 0.00 | 26 | 1016.8 |
| 20260507141525 | 59 | 191 | 6.1 | 11.3 | 0.00 | 0.00 | 0.00 | 26 | 1016.8 |
| 20260507140022 | 59 | 157 | 5.2 | 9.6 | 0.00 | 0.00 | 0.00 | 26 | 1016.8 |
| 20260507134516 | 59 | 135 | 5.2 | 13.9 | 0.00 | 0.00 | 0.00 | 28 | 1016.7 |
| 20260507133012 | 59 | 218 | 4.3 | 8.7 | 0.00 | 0.00 | 0.00 | 26 | 1016.7 |
| 20260507131517 | 59 | 195 | 6.1 | 14.8 | 0.00 | 0.00 | 0.00 | 26 | 1016.7 |
| 20260507130005 | 59 | 238 | 6.1 | 17.4 | 0.00 | 0.00 | 0.00 | 26 | 1016.6 |
| 20260507124605 | 59 | 240 | 4.3 | 15.6 | 0.00 | 0.00 | 0.00 | 26 | 1016.5 |
| 20260507123054 | 59 | 208 | 3.5 | 7.8 | 0.00 | 0.00 | 0.00 | 26 | 1016.5 |
| 20260507121552 | 59 | 245 | 0.0 | 8.7 | 0.00 | 0.00 | 0.00 | 29 | 1016.4 |
| 20260507120046 | 59 | 167 | 0.9 | 9.6 | 0.00 | 0.00 | 0.00 | 27 | 1016.4 |
| 20260507114556 | 59 | 160 | 2.6 | 9.6 | 0.00 | 0.00 | 0.00 | 28 | 1016.3 |
| 20260507113059 | 59 | 226 | 0.9 | 9.6 | 0.00 | 0.00 | 0.00 | 31 | 1016.3 |
| 20260507111539 | 59 | 238 | 1.7 | 11.3 | 0.00 | 0.00 | 0.00 | 29 | 1016.3 |
| 20260507110027 | 59 | 169 | 2.6 | 8.7 | 0.00 | 0.00 | 0.00 | 30 | 1016.2 |
| 20260507104527 | 58 | 184 | 3.5 | 10.4 | 0.00 | 0.00 | 0.00 | 31 | 1016.2 |
| 20260507103021 | 58 | 186 | 5.2 | 8.7 | 0.00 | 0.00 | 0.00 | 31 | 1016.2 |
| 20260507101517 | 59 | 288 | 0.9 | 3.5 | 0.00 | 0.00 | 0.00 | 30 | 1016.1 |
| 20260507100012 | 57 | 169 | 0.9 | 7.8 | 0.00 | 0.00 | 0.00 | 31 | 1016.1 |
| 20260507094505 | 56 | 285 | 1.7 | 8.7 | 0.00 | 0.00 | 0.00 | 33 | 1015.9 |
| 20260507093001 | 57 | 167 | 5.2 | 9.6 | 0.00 | 0.00 | 0.00 | 33 | 1015.8 |
| 20260507091630 | 56 | 177 | 3.5 | 7.0 | 0.00 | 0.00 | 0.00 | 35 | 1015.8 |
| 20260507090052 | 56 | 200 | 3.5 | 7.0 | 0.00 | 0.00 | 0.00 | 37 | 1015.7 |
| 20260507084557 | 56 | 179 | 0.9 | 4.3 | 0.00 | 0.00 | 0.00 | 37 | 1015.7 |
| 20260507083043 | 55 | 175 | 4.3 | 7.0 | 0.00 | 0.00 | 0.00 | 39 | 1015.6 |
| 20260507081546 | 54 | 201 | 0.9 | 7.0 | 0.00 | 0.00 | 0.00 | 42 | 1015.6 |
| 20260507080034 | 53 | 169 | 1.7 | 7.0 | 0.00 | 0.00 | 0.00 | 45 | 1015.5 |
| 20260507074531 | 53 | 149 | 3.5 | 5.2 | 0.00 | 0.00 | 0.00 | 47 | 1015.4 |
| 20260507073025 | 52 | 201 | 0.0 | 5.2 | 0.00 | 0.00 | 0.00 | 53 | 1015.4 |
| 20260507071521 | 52 | 180 | 0.9 | 4.3 | 0.00 | 0.00 | 0.00 | 56 | 1015.3 |
| 20260507070017 | 52 | 205 | 0.0 | 0.9 | 0.00 | 0.00 | 0.00 | 57 | 1015.2 |
| 20260507064512 | 50 | 158 | 0.0 | 0.9 | 0.00 | 0.00 | 0.00 | 66 | 1015.2 |
| 20260507063009 | 50 | 152 | 0.0 | 0.0 | 0.00 | 0.00 | 0.00 | 69 | 1015.1 |
| 20260507061504 | 49 | 167 | 0.0 | 0.0 | 0.00 | 0.00 | 0.00 | 69 | 1015.1 |
| 20260507060104 | 46 | 174 | 0.0 | 0.0 | 0.00 | 0.00 | 0.00 | 69 | 1015.1 |
| 20260507054558 | 44 | 174 | 0.0 | 0.0 | 0.00 | 0.00 | 0.00 | 67 | 1015.0 |
| 20260507053052 | 42 | 176 | 0.0 | 0.0 | 0.00 | 0.00 | 0.00 | 61 | 1014.9 |
| 20260507051547 | 41 | 176 | 0.0 | 0.0 | 0.00 | 0.00 | 0.00 | 21 | 1014.6 |
| 20260507050044 | 36 | 176 | 0.0 | 0.0 | 0.00 | 0.00 | 0.00 | 28 | 1014.6 |
| 20260507044539 | 34 | 176 | 0.0 | 0.0 | 0.00 | 0.00 | 0.00 | 12 | 1014.6 |
| 20260507043043 | 32 | 176 | 0.0 | 0.0 | 0.00 | 0.00 | 0.00 | 15 | 1014.5 |
| 20260507041530 | 30 | 176 | 0.0 | 0.0 | 0.00 | 0.00 | 0.00 | 9 | 1014.4 |
| 20260507040026 | 29 | 176 | 0.0 | 0.0 | 0.00 | 0.00 | 0.00 | 12 | 1014.4 |
| 20260507034528 | 28 | 176 | 0.0 | 0.0 | 0.00 | 0.00 | 0.00 | 15 | 1014.3 |
| 20260507033018 | 28 | 176 | 0.0 | 0.0 | 0.00 | 0.00 | 0.00 | 17 | 1014.1 |
| 20260507031517 | 29 | 176 | 0.0 | 0.0 | 0.00 | 0.00 | 0.00 | 15 | 1014.0 |
| 20260507030010 | 29 | 176 | 0.0 | 0.0 | 0.00 | 0.00 | 0.00 | 16 | 1014.0 |
| 20260507024510 | 29 | 176 | 0.0 | 0.0 | 0.00 | 0.00 | 0.00 | 20 | 1014.0 |
| 20260507023110 | 29 | 176 | 0.0 | 0.0 | 0.00 | 0.00 | 0.00 | 20 | 1013.9 |
| 20260507021556 | 29 | 176 | 0.0 | 0.0 | 0.00 | 0.00 | 0.00 | 22 | 1013.9 |
| 20260507020058 | 29 | 176 | 0.0 | 0.0 | 0.00 | 0.00 | 0.00 | 24 | 1013.7 |
| 20260507014547 | 29 | 176 | 0.0 | 0.0 | 0.00 | 0.00 | 0.00 | 23 | 1013.6 |
| 20260507013042 | 29 | 176 | 0.0 | 0.0 | 0.00 | 0.00 | 0.00 | 28 | 1013.5 |
| 20260507011545 | 29 | 176 | 0.0 | 0.0 | 0.00 | 0.00 | 0.00 | 31 | 1013.5 |
| 20260507010036 | 30 | 176 | 0.0 | 0.0 | 0.00 | 0.00 | 0.00 | 31 | 1013.4 |
| 20260507004532 | 30 | 176 | 0.0 | 0.0 | 0.00 | 0.00 | 0.00 | 25 | 1013.4 |
| 20260507003027 | 30 | 176 | 0.0 | 0.0 | 0.00 | 0.00 | 0.00 | 34 | 1013.3 |
| 20260507001558 | 30 | 176 | 0.0 | 0.0 | 0.00 | 0.00 | 0.00 | 36 | 1013.2 |
| 20260507000024 | 31 | 176 | 0.0 | 0.0 | 0.00 | 0.00 | 0.00 | 38 | 1013.2 |
| 20260506234521 | 31 | 176 | 0.0 | 0.0 | 0.00 | 0.00 | 0.00 | 33 | 1013.1 |
| 20260506233019 | 31 | 176 | 0.0 | 0.0 | 0.00 | 0.00 | 0.00 | 41 | 1013.1 |
| 20260506231517 | 31 | 176 | 0.0 | 0.0 | 0.00 | 0.00 | 0.00 | 46 | 1013.0 |
| 20260506230012 | 32 | 176 | 0.0 | 0.0 | 0.00 | 0.00 | 0.00 | 53 | 1012.9 |
| 20260506224508 | 33 | 176 | 0.0 | 0.0 | 0.00 | 0.00 | 0.00 | 58 | 1012.8 |
| 20260506223004 | 34 | 176 | 0.0 | 0.0 | 0.00 | 0.00 | 0.00 | 62 | 1012.7 |
| 20260506221501 | 34 | 176 | 0.0 | 0.0 | 0.00 | 0.00 | 0.00 | 64 | 1012.7 |